Weather History for Binghamton, NY

Change the Weather History Date:

Monday, December 16, 2013

  Actual Average Record
Temperature  
Mean Temperature 16 °F 27 °F  
Max Temperature 22 °F 33 °F 54 °F (1971)
Min Temperature 10 °F 21 °F -1 °F (1951)
Degree Days  
Heating Degree Days 49 38  
Month to date heating degree days 613 567  
Since 1 July heating degree days 2204 2142  
Cooling Degree Days 0 0  
Month to date cooling degree days 0 0  
Year to date cooling degree days 480 381  
Moisture  
Dew Point 9 °F    
Average Humidity 74    
Maximum Humidity 92    
Minimum Humidity 56    
Precipitation  
Precipitation T in 0.09 in 0.63 in (2005)
Month to date precipitation 1.15 1.58  
Year to date precipitation 40.66 38.05  
Snow  
Snow 0.10 in 0.60 in 6.20 in (1970)
Month to date snowfall 13.7 8.4  
Since 1 July snowfall 21.9 15.2  
Snow Depth 7.00 in    
Sea Level Pressure  
Sea Level Pressure 29.98 in    
Wind  
Wind Speed 8 mph (West)    
Max Wind Speed 22 mph    
Max Gust Speed 29 mph    
Visibility 8 miles    
Events Snow    
T = Trace of Precipitation, MM = Missing Value Source: NWS Daily Summary

Daily Weather History Graph

Daily Weather History Graph

Search for Another Location

Airport:

Trip Planner

Search our weather history database for the weather conditions in past years. The results will help you decide how hot, cold, wet, or windy it might be!

Date:

Astronomy

Dec. 16, 2013 Rise Set
Actual Time 7:26 AM EST 4:32 PM EST
Civil Twilight 6:54 AM EST 5:04 PM EST
Nautical Twilight 6:19 AM EST 5:40 PM EST
Astronomical Twilight 5:45 AM EST 6:14 PM EST
Moon 4:22 PM EST (12/16) 6:31 AM EST (12/16)
Length of Visible Light 10h 10m
Length of Day
9h 06m
Full, 100% of the Moon is Illuminated
Dec 16
Full
Dec 17
Full
Dec 25
Last Quarter
Jan 1
New
Jan 7
First Quarter

Hourly Weather History & Observations

Time (EST) Temp. Windchill Dew Point Humidity Pressure Visibility Wind Dir Wind Speed Gust Speed Precip Events Conditions
12:05 AM 21.2 °F 6.4 °F 12.2 °F 68% 29.73 in 2.0 mi WNW 18.4 mph 28.8 mph 0.00 in Snow Light Snow
12:08 AM 21.2 °F 6.0 °F 15.8 °F 80% 29.74 in 0.8 mi WNW 19.6 mph 28.8 mph 0.00 in Snow Light Snow
12:22 AM 19.4 °F 6.6 °F 15.8 °F 86% 29.74 in 2.0 mi West 12.7 mph 21.9 mph 0.00 in Snow Light Snow
12:31 AM 19.4 °F 7.2 °F 15.8 °F 86% 29.74 in 4.0 mi West 11.5 mph 20.7 mph 0.00 in Snow Light Snow
12:48 AM 19.4 °F 7.9 °F 14.0 °F 80% 29.75 in 7.0 mi West 10.4 mph - 0.00 in Snow Light Snow
12:53 AM 19.9 °F 7.9 °F 14.0 °F 78% 29.82 in 4.0 mi West 11.5 mph - 0.00 in Snow Light Snow
1:39 AM 19.4 °F 6.0 °F 8.6 °F 63% 29.77 in 7.0 mi WNW 13.8 mph 24.2 mph 0.00 in   Mostly Cloudy
1:53 AM 18.0 °F 4.8 °F 9.0 °F 68% 29.85 in 10.0 mi WNW 12.7 mph 20.7 mph 0.00 in   Mostly Cloudy
2:53 AM 17.1 °F 4.3 °F 10.0 °F 74% 29.88 in 10.0 mi West 11.5 mph 20.7 mph N/A   Mostly Cloudy
3:53 AM 16.0 °F 1.7 °F 6.1 °F 65% 29.89 in 10.0 mi West 13.8 mph - N/A   Clear
4:53 AM 15.1 °F 3.3 °F 5.0 °F 64% 29.92 in 10.0 mi West 9.2 mph - N/A   Scattered Clouds
5:53 AM 12.9 °F 1.6 °F 5.0 °F 71% 29.94 in 10.0 mi West 8.1 mph - N/A   Scattered Clouds
6:53 AM 10.9 °F 0.2 °F 3.9 °F 73% 29.97 in 10.0 mi WSW 6.9 mph - N/A   Clear
7:53 AM 12.0 °F -1.3 °F 6.1 °F 77% 29.98 in 10.0 mi WSW 10.4 mph - N/A   Overcast
8:42 AM 14.0 °F 2.0 °F 8.6 °F 79% 29.93 in 7.0 mi WSW 9.2 mph - 0.00 in Snow Light Snow
8:53 AM 14.0 °F 2.9 °F 9.0 °F 80% 30.01 in 9.0 mi WSW 8.1 mph - 0.00 in   Overcast
9:53 AM 16.0 °F 1.7 °F 9.0 °F 74% 30.03 in 7.0 mi West 13.8 mph - N/A   Overcast
10:53 AM 18.0 °F 6.1 °F 10.0 °F 71% 30.04 in 10.0 mi West 10.4 mph - 0.00 in   Overcast
11:29 AM 17.6 °F 5.7 °F 8.6 °F 68% 29.96 in 10.0 mi WNW 10.4 mph - N/A   Overcast
11:49 AM 17.6 °F 4.3 °F 8.6 °F 68% 29.96 in 10.0 mi WNW 12.7 mph 18.4 mph N/A   Overcast
11:53 AM 18.0 °F 4.8 °F 8.1 °F 65% 30.04 in 10.0 mi West 12.7 mph 18.4 mph N/A   Overcast
12:53 PM 19.0 °F 6.1 °F 7.0 °F 59% 30.04 in 10.0 mi West 12.7 mph - 0.00 in   Overcast
1:53 PM 19.9 °F 6.7 °F 6.1 °F 55% 30.04 in 10.0 mi WNW 13.8 mph 19.6 mph N/A   Overcast
2:53 PM 19.0 °F 9.0 °F 9.0 °F 65% 30.07 in 10.0 mi WNW 8.1 mph - N/A   Overcast
3:53 PM 18.0 °F 7.7 °F 8.1 °F 65% 30.09 in 10.0 mi WNW 8.1 mph - N/A   Mostly Cloudy
4:53 PM 18.0 °F 6.9 °F 7.0 °F 62% 30.10 in 10.0 mi WNW 9.2 mph - N/A   Mostly Cloudy
5:53 PM 15.1 °F - 9.0 °F 77% 30.13 in 10.0 mi Calm Calm - N/A   Scattered Clouds
6:53 PM 15.1 °F 7.7 °F 9.0 °F 77% 30.16 in 10.0 mi NW 4.6 mph - N/A   Partly Cloudy
7:53 PM 12.0 °F - 7.0 °F 80% 30.18 in 10.0 mi Calm Calm - N/A   Clear
8:53 PM 12.9 °F - 8.1 °F 81% 30.18 in 10.0 mi Calm Calm - N/A   Clear
9:53 PM 10.9 °F - 8.1 °F 88% 30.17 in 10.0 mi Calm Calm - N/A   Partly Cloudy
10:53 PM 12.0 °F - 8.1 °F 84% 30.17 in 10.0 mi Calm Calm - N/A   Clear
11:53 PM 10.0 °F 3.6 °F 7.0 °F 87% 30.17 in 10.0 mi ESE 3.5 mph - N/A   Clear